Regional Weather Roundup
Issued by NWS Albany, NY

Home | Current Version | Previous Version | Text Only | Print | Product List | Glossary On
Versions: 1 2 3 4 5 6 7 8 9 10 11 12 13 14 15 16 17 18 19 20 21 22 23 24 25 26 27
000
ASUS41 KALY 311410
RWRALY

NEW YORK STATE HOURLY WEATHER ROUNDUP
NATIONAL WEATHER SERVICE ALBANY NY
1000 AM EDT TUE MAY 31 2016

NOTE: "FAIR" INDICATES FEW OR NO CLOUDS BELOW 12,000 FEET WITH NO
SIGNIFICANT WEATHER AND/OR NO OBSTRUCTIONS TO VISIBILITY.

NYZ032-033-038>043-046>054-057>066-NYZ062>081-082-084-311500-
EAST


CITY           SKY/WX    TMP DP  RH WIND       PRES   REMARKS
ALBANY         MOSUNNY   74  51  44 NW9       29.97F
GLENS FALLS    SUNNY     76  48  37 W12       29.94F
POUGHKEEPSIE   MOSUNNY   77  60  55 VRB6      29.97S
NEWBURGH       MOSUNNY   75  61  60 CALM      29.99F
MONTGOMERY     SUNNY     77  62  59 CALM      29.98S
WHITE PLAINS   CLOUDY    75  59  57 N7        29.98S
ISLIP          PTSUNNY   73  68  84 VRB3      29.98S
NEW YORK CITY  PTSUNNY   75  65  70 NE7       29.97R
CENTRAL PARK   CLOUDY    76  61  59 NE6       30.00R
$$

NYZ005>009-017-018-044>046-055-056-311500-
CENTRAL


CITY           SKY/WX    TMP DP  RH WIND       PRES   REMARKS
FULTON         SUNNY     75  55  49 SW6       29.99S
SYRACUSE       MOSUNNY   72  54  53 VRB5      29.99S
ROME           SUNNY     70  55  59 W7        30.00F
ELMIRA         SUNNY     72  56  57 CALM      30.01F
BINGHAMTON     SUNNY     68  55  63 W5        30.04S
MONTICELLO     SUNNY     73  55  53 NW12      30.04S
$$

NYZ026>034-041>043-087-311500-
NORTH


CITY           SKY/WX    TMP DP  RH WIND       PRES   REMARKS
WATERTOWN      SUNNY     71  50  47 W12       29.97S
FORT DRUM      NOT AVBL
MASSENA        SUNNY     72  51  47 W13G20    29.91S
SARANAC LAKE   SUNNY     67  45  45 W9G22     29.94F
PLATTSBURGH    SUNNY     73  50  44 W12G23    29.89S
$$

NYZ001>004-010>016-019>021-085-311500-
WEST


CITY           SKY/WX    TMP DP  RH WIND       PRES   REMARKS
NIAGARA FALLS  MOSUNNY   74  53  48 CALM      30.01S
BUFFALO        MOSUNNY   74  51  44 CALM      30.01F
DUNKIRK        MOSUNNY   70  58  65 N6        30.03R
WELLSVILLE     SUNNY     72  56  57 VRB5      30.07F
ROCHESTER      MOSUNNY   72  55  55 W5        30.01S
PENN YAN       MOSUNNY   70  57  63 CALM      30.03F
$$

             KEY
       WCI = WIND CHILL INDEX
       VSB = VISIBILITY
       HX  = HEAT INDEX
$$




USA.gov is the U.S. government's official web portal to all federal, state and local government web resources and services.